This is the latest recevied weather packets stored in our database for station/object VE2XOX. If no packets are shown the sender has not sent any weather packets the latest 10 day(s).
| Time | Temp. | Humidity | Pressure | Rain* | Wind** | Luminosity | Snow |
|---|---|---|---|---|---|---|---|
| 1777996820 | 17.78° C | 70% | 999.2 hPa | 0 mm | - | - | - |
| 1777996531 | 17.78° C | 69% | 999.3 hPa | 0 mm | - | - | - |
| 1777996215 | 18.33° C | 67% | 999.3 hPa | 0 mm | - | - | - |
| 1777995919 | 18.89° C | 66% | 999.2 hPa | 0 mm | - | - | - |
| 1777995628 | 19.44° C | 63% | 999.1 hPa | 0 mm | - | - | - |
| 1777995316 | 19.44° C | 56% | 998.9 hPa | 0 mm | - | - | - |
| 1777995017 | 19.44° C | 57% | 998.9 hPa | 0 mm | - | - | - |
| 1777994720 | 18.89° C | 57% | 998.8 hPa | 0 mm | - | - | - |
| 1777994428 | 18.89° C | 57% | 999 hPa | 0 mm | - | - | - |
| 1777994130 | 18.33° C | 58% | 999.1 hPa | 0 mm | - | - | - |
| 1777993814 | 17.78° C | 59% | 999.2 hPa | 0 mm | - | - | - |
| 1777993524 | 17.22° C | 59% | 999.4 hPa | 0 mm | - | - | - |
| 1777993220 | 17.22° C | 59% | 999.4 hPa | 0 mm | - | - | - |
| 1777992932 | 17.22° C | 59% | 999.5 hPa | 0 mm | - | - | - |
| 1777992614 | 17.22° C | 59% | 999.5 hPa | 0 mm | - | - | - |
| 1777992320 | 17.22° C | 59% | 999.6 hPa | 0 mm | - | - | - |
| 1777992033 | 17.22° C | 58% | 999.6 hPa | 0 mm | - | - | - |
| 1777991718 | 17.22° C | 57% | 999.5 hPa | 0 mm | - | - | - |
| 1777991422 | 17.22° C | 58% | 999.5 hPa | 0 mm | - | - | - |
| 1777991131 | 17.22° C | 58% | 999.5 hPa | 0 mm | - | - | - |
| 1777990812 | 16.67° C | 59% | 999.5 hPa | 0 mm | - | - | - |
| 1777990515 | 16.11° C | 59% | 999.5 hPa | 0 mm | - | - | - |
| 1777989931 | 16.11° C | 59% | 999.7 hPa | 0 mm | - | - | - |
| 1777989615 | 15.56° C | 59% | 999.7 hPa | 0 mm | - | - | - |
| 1777989325 | 15.56° C | 61% | 999.8 hPa | 0 mm | - | - | - |
* Rain latest hour (hover to see other rain measurements)
** Current wind speed in m/s (hover to see current wind gust speed)